{"data":{"norad_id":64926,"epoch":"2026-05-24T20:18:43.940160Z","epoch_age_seconds":85360,"freshness":"FRESH","line1":"1 64926U 25157Y   26144.84634190  .00020938  00000+0  68441-3 0  9996","line2":"2 64926  53.1610 351.9273 0000867  96.7378 263.3722 15.31708625 47730","mean_motion":15.31708625,"eccentricity":8.67e-5,"inclination_deg":53.161,"raan_deg":351.9273,"arg_perigee_deg":96.7378,"mean_anomaly_deg":263.3722,"bstar":0.00068441,"rev_number":4773,"period_min":94.012658575974,"perigee_km":470.12048926372,"apogee_km":471.30808007648,"semimajor_km":6848.8512846701,"source":"CELESTRAK","updated_at":"2026-05-25T13:38:20.625822Z"}}